Year,Month,Day,Hour,Minute,Value (Times are PST for temperature in C)
2008,04,05,00,00,5.60
2008,04,05,00,01,5.60
2008,04,05,00,02,5.50
2008,04,05,00,03,5.50
2008,04,05,00,04,5.50
2008,04,05,00,05,5.50
2008,04,05,00,06,5.50
2008,04,05,00,07,5.40
2008,04,05,00,08,5.40
2008,04,05,00,09,5.40
2008,04,05,00,10,5.40
2008,04,05,00,11,5.40
2008,04,05,00,12,5.40
2008,04,05,00,13,5.40
2008,04,05,00,14,5.40
2008,04,05,00,15,5.40
2008,04,05,00,16,5.40
2008,04,05,00,17,5.40
2008,04,05,00,18,5.40
2008,04,05,00,19,5.40
2008,04,05,00,20,5.40
2008,04,05,00,21,5.40
2008,04,05,00,22,5.40
2008,04,05,00,23,5.40
2008,04,05,00,24,5.30
2008,04,05,00,25,5.30
2008,04,05,00,26,5.30
2008,04,05,00,27,5.30
2008,04,05,00,28,5.30
2008,04,05,00,29,5.30
2008,04,05,00,30,5.30
2008,04,05,00,31,5.20
2008,04,05,00,32,5.20
2008,04,05,00,33,5.20
2008,04,05,00,34,5.20
2008,04,05,00,35,5.20
2008,04,05,00,36,5.20
2008,04,05,00,37,5.20
2008,04,05,00,38,5.20
2008,04,05,00,39,5.20
2008,04,05,00,40,5.10
2008,04,05,00,41,5.10
2008,04,05,00,42,5.10
2008,04,05,00,43,5.10
2008,04,05,00,44,5.10
2008,04,05,00,45,5.10
2008,04,05,00,46,5.10
2008,04,05,00,47,5.10
2008,04,05,00,48,5.10
2008,04,05,00,49,5.00
2008,04,05,00,50,5.00
2008,04,05,00,51,5.00
2008,04,05,00,52,5.00
2008,04,05,00,53,5.10
2008,04,05,00,54,5.10
2008,04,05,00,55,5.10
2008,04,05,00,56,5.10
2008,04,05,00,57,5.10
2008,04,05,00,58,5.10
2008,04,05,00,59,5.10
2008,04,05,01,00,5.10
2008,04,05,01,01,5.10
2008,04,05,01,02,5.10
2008,04,05,01,03,5.10
2008,04,05,01,04,5.10
2008,04,05,01,05,5.10
2008,04,05,01,06,5.10
2008,04,05,01,07,5.00
2008,04,05,01,08,5.00
2008,04,05,01,09,4.90
2008,04,05,01,10,4.80
2008,04,05,01,11,4.80
2008,04,05,01,12,4.70
2008,04,05,01,13,4.70
2008,04,05,01,14,4.60
2008,04,05,01,15,4.60
2008,04,05,01,16,4.50
2008,04,05,01,17,4.50
2008,04,05,01,18,4.40
2008,04,05,01,19,4.30
2008,04,05,01,20,4.30
2008,04,05,01,21,4.30
2008,04,05,01,22,4.20
2008,04,05,01,23,4.20
2008,04,05,01,24,4.20
2008,04,05,01,25,4.20
2008,04,05,01,26,4.10
2008,04,05,01,27,4.10
2008,04,05,01,28,4.10
2008,04,05,01,29,4.10
2008,04,05,01,30,4.10
2008,04,05,01,31,4.10
2008,04,05,01,32,4.10
2008,04,05,01,33,4.00
2008,04,05,01,34,4.00
2008,04,05,01,35,4.00
2008,04,05,01,36,4.00
2008,04,05,01,37,4.00
2008,04,05,01,38,3.90
2008,04,05,01,39,3.90
2008,04,05,01,40,3.90
2008,04,05,01,41,3.90
2008,04,05,01,42,3.90
2008,04,05,01,43,3.80
2008,04,05,01,44,3.80
2008,04,05,01,45,3.80
2008,04,05,01,46,3.80
2008,04,05,01,47,3.80
2008,04,05,01,48,3.70
2008,04,05,01,49,3.70
2008,04,05,01,50,3.70
2008,04,05,01,51,3.70
2008,04,05,01,52,3.70
2008,04,05,01,53,3.60
2008,04,05,01,54,3.60
2008,04,05,01,55,3.60
2008,04,05,01,56,3.60
2008,04,05,01,57,3.50
2008,04,05,01,58,3.50
2008,04,05,01,59,3.40
2008,04,05,02,00,3.40
2008,04,05,02,01,3.40
2008,04,05,02,02,3.30
2008,04,05,02,03,3.30
2008,04,05,02,04,3.30
2008,04,05,02,05,3.20
2008,04,05,02,06,3.20
2008,04,05,02,07,3.20
2008,04,05,02,08,3.10
2008,04,05,02,09,3.10
2008,04,05,02,10,3.10
2008,04,05,02,11,3.10
2008,04,05,02,12,3.00
2008,04,05,02,13,3.00
2008,04,05,02,14,3.00
2008,04,05,02,15,3.00
2008,04,05,02,16,3.10
2008,04,05,02,17,3.10
2008,04,05,02,18,3.10
2008,04,05,02,19,3.10
2008,04,05,02,20,3.10
2008,04,05,02,21,3.10
2008,04,05,02,22,3.10
2008,04,05,02,23,3.00
2008,04,05,02,24,3.00
2008,04,05,02,25,3.00
2008,04,05,02,26,3.00
2008,04,05,02,27,3.00
2008,04,05,02,28,3.00
2008,04,05,02,29,3.00
2008,04,05,02,30,3.00
2008,04,05,02,31,3.00
2008,04,05,02,32,3.00
2008,04,05,02,33,3.00
2008,04,05,02,34,3.00
2008,04,05,02,35,3.00
2008,04,05,02,36,3.00
2008,04,05,02,37,3.00
2008,04,05,02,38,3.00
2008,04,05,02,39,3.00
2008,04,05,02,40,3.00
2008,04,05,02,41,3.00
2008,04,05,02,42,2.90
2008,04,05,02,43,2.90
2008,04,05,02,44,2.90
2008,04,05,02,45,2.90
2008,04,05,02,46,2.90
2008,04,05,02,47,2.80
2008,04,05,02,48,2.80
2008,04,05,02,49,2.80
2008,04,05,02,50,2.70
2008,04,05,02,51,2.70
2008,04,05,02,52,2.70
2008,04,05,02,53,2.70
2008,04,05,02,54,2.60
2008,04,05,02,55,2.60
2008,04,05,02,56,2.60
2008,04,05,02,57,2.60
2008,04,05,02,58,2.50
2008,04,05,02,59,2.50
2008,04,05,03,00,2.50
2008,04,05,03,01,2.50
2008,04,05,03,02,2.40
2008,04,05,03,03,2.40
2008,04,05,03,04,2.40
2008,04,05,03,05,2.40
2008,04,05,03,06,2.40
2008,04,05,03,07,2.30
2008,04,05,03,08,2.30
2008,04,05,03,09,2.30
2008,04,05,03,10,2.30
2008,04,05,03,11,2.30
2008,04,05,03,12,2.30
2008,04,05,03,13,2.30
2008,04,05,03,14,2.30
2008,04,05,03,15,2.30
2008,04,05,03,16,2.30
2008,04,05,03,17,2.30
2008,04,05,03,18,2.30
2008,04,05,03,19,2.30
2008,04,05,03,20,2.30
2008,04,05,03,21,2.30
2008,04,05,03,22,2.30
2008,04,05,03,23,2.20
2008,04,05,03,24,2.20
2008,04,05,03,25,2.20
2008,04,05,03,26,2.20
2008,04,05,03,27,2.20
2008,04,05,03,28,2.20
2008,04,05,03,29,2.10
2008,04,05,03,30,2.10
2008,04,05,03,31,2.10
2008,04,05,03,32,2.10
2008,04,05,03,33,2.10
2008,04,05,03,34,2.10
2008,04,05,03,35,2.10
2008,04,05,03,36,2.10
2008,04,05,03,37,2.00
2008,04,05,03,38,2.00
2008,04,05,03,39,2.00
2008,04,05,03,40,2.00
2008,04,05,03,41,2.00
2008,04,05,03,42,2.00
2008,04,05,03,43,2.00
2008,04,05,03,44,2.00
2008,04,05,03,45,2.00
2008,04,05,03,46,2.00
2008,04,05,03,47,2.00
2008,04,05,03,48,2.10
2008,04,05,03,49,2.10
2008,04,05,03,50,2.10
2008,04,05,03,51,2.10
2008,04,05,03,52,2.20
2008,04,05,03,53,2.30
2008,04,05,03,54,2.30
2008,04,05,03,55,2.40
2008,04,05,03,56,2.40
2008,04,05,03,57,2.50
2008,04,05,03,58,2.60
2008,04,05,03,59,2.60
2008,04,05,04,00,2.70
2008,04,05,04,01,2.70
2008,04,05,04,02,2.80
2008,04,05,04,03,2.90
2008,04,05,04,04,2.90
2008,04,05,04,05,3.00
2008,04,05,04,06,3.10
2008,04,05,04,07,3.10
2008,04,05,04,08,3.20
2008,04,05,04,09,3.20
2008,04,05,04,10,3.30
2008,04,05,04,11,3.30
2008,04,05,04,12,3.30
2008,04,05,04,13,3.30
2008,04,05,04,14,3.40
2008,04,05,04,15,3.40
2008,04,05,04,16,3.40
2008,04,05,04,17,3.40
2008,04,05,04,18,3.40
2008,04,05,04,19,3.50
2008,04,05,04,20,3.50
2008,04,05,04,21,3.60
2008,04,05,04,22,3.60
2008,04,05,04,23,3.60
2008,04,05,04,24,3.60
2008,04,05,04,25,3.60
2008,04,05,04,26,3.60
2008,04,05,04,27,3.70
2008,04,05,04,28,3.70
2008,04,05,04,29,3.70
2008,04,05,04,30,3.80
2008,04,05,04,31,3.80
2008,04,05,04,32,3.80
2008,04,05,04,33,3.80
2008,04,05,04,34,3.80
2008,04,05,04,35,3.80
2008,04,05,04,36,3.80
2008,04,05,04,37,3.90
2008,04,05,04,38,3.90
2008,04,05,04,39,3.90
2008,04,05,04,40,3.90
2008,04,05,04,41,3.90
2008,04,05,04,42,3.90
2008,04,05,04,43,3.90
2008,04,05,04,44,3.90
2008,04,05,04,45,4.00
2008,04,05,04,46,4.00
2008,04,05,04,47,4.00
2008,04,05,04,48,4.10
2008,04,05,04,49,4.00
2008,04,05,04,50,4.10
2008,04,05,04,51,4.10
2008,04,05,04,52,4.10
2008,04,05,04,53,4.10
2008,04,05,04,54,4.00
2008,04,05,04,55,4.00
2008,04,05,04,56,4.00
2008,04,05,04,57,4.00
2008,04,05,04,58,4.10
2008,04,05,04,59,4.10
2008,04,05,05,00,4.10
2008,04,05,05,01,4.10
2008,04,05,05,02,4.10
2008,04,05,05,03,4.10
2008,04,05,05,04,4.10
2008,04,05,05,05,4.10
2008,04,05,05,06,4.10
2008,04,05,05,07,4.00
2008,04,05,05,08,4.00
2008,04,05,05,09,3.90
2008,04,05,05,10,3.90
2008,04,05,05,11,3.90
2008,04,05,05,12,3.90
2008,04,05,05,13,3.90
2008,04,05,05,14,3.90
2008,04,05,05,15,3.80
2008,04,05,05,16,3.80
2008,04,05,05,17,3.80
2008,04,05,05,18,3.80
2008,04,05,05,19,3.80
2008,04,05,05,20,3.80
2008,04,05,05,21,3.80
2008,04,05,05,22,3.80
2008,04,05,05,23,3.80
2008,04,05,05,24,3.80
2008,04,05,05,25,3.80
2008,04,05,05,26,3.80
2008,04,05,05,27,3.80
2008,04,05,05,28,3.80
2008,04,05,05,29,3.80
2008,04,05,05,30,3.80
2008,04,05,05,31,3.80
2008,04,05,05,32,3.80
2008,04,05,05,33,3.80
2008,04,05,05,34,3.80
2008,04,05,05,35,3.80
2008,04,05,05,36,3.80
2008,04,05,05,37,3.80
2008,04,05,05,38,3.80
2008,04,05,05,39,3.80
2008,04,05,05,40,3.80
2008,04,05,05,41,3.80
2008,04,05,05,42,3.80
2008,04,05,05,43,3.80
2008,04,05,05,44,3.90
2008,04,05,05,45,3.90
2008,04,05,05,46,3.90
2008,04,05,05,47,3.90
2008,04,05,05,48,3.90
2008,04,05,05,49,3.90
2008,04,05,05,50,3.90
2008,04,05,05,51,3.90
2008,04,05,05,52,3.90
2008,04,05,05,53,3.90
2008,04,05,05,54,3.90
2008,04,05,05,55,3.80
2008,04,05,05,56,3.80
2008,04,05,05,57,3.90
2008,04,05,05,58,3.90
2008,04,05,05,59,3.90
2008,04,05,06,00,3.90
2008,04,05,06,01,3.80
2008,04,05,06,02,3.80
2008,04,05,06,03,3.80
2008,04,05,06,04,3.80
2008,04,05,06,05,3.80
2008,04,05,06,06,3.80
2008,04,05,06,07,3.80
2008,04,05,06,08,3.80
2008,04,05,06,09,3.80
2008,04,05,06,10,3.80
2008,04,05,06,11,3.80
2008,04,05,06,12,3.80
2008,04,05,06,13,3.80
2008,04,05,06,14,3.80
2008,04,05,06,15,3.80
2008,04,05,06,16,3.80
2008,04,05,06,17,3.80
2008,04,05,06,18,3.80
2008,04,05,06,19,3.90
2008,04,05,06,20,3.90
2008,04,05,06,21,3.90
2008,04,05,06,22,3.90
2008,04,05,06,23,3.90
2008,04,05,06,24,3.90
2008,04,05,06,25,3.90
2008,04,05,06,26,3.90
2008,04,05,06,27,3.90
2008,04,05,06,28,3.90
2008,04,05,06,29,3.90
2008,04,05,06,30,3.90
2008,04,05,06,31,3.90
2008,04,05,06,32,3.90
2008,04,05,06,33,3.80
2008,04,05,06,34,3.80
2008,04,05,06,35,3.80
2008,04,05,06,36,3.80
2008,04,05,06,37,3.80
2008,04,05,06,38,3.80
2008,04,05,06,39,3.80
2008,04,05,06,40,3.80
2008,04,05,06,41,3.80
2008,04,05,06,42,3.80
2008,04,05,06,43,3.80
2008,04,05,06,44,3.80
2008,04,05,06,45,3.80
2008,04,05,06,46,3.80
2008,04,05,06,47,3.80
2008,04,05,06,48,3.80
2008,04,05,06,49,3.80
2008,04,05,06,50,3.80
2008,04,05,06,51,3.80
2008,04,05,06,52,3.80
2008,04,05,06,53,3.80
2008,04,05,06,54,3.80
2008,04,05,06,55,3.80
2008,04,05,06,56,3.90
2008,04,05,06,57,3.90
2008,04,05,06,58,3.90
2008,04,05,06,59,3.90
2008,04,05,07,00,3.90
2008,04,05,07,01,4.00
2008,04,05,07,02,4.00
2008,04,05,07,03,4.10
2008,04,05,07,04,4.10
2008,04,05,07,05,4.10
2008,04,05,07,06,4.20
2008,04,05,07,07,4.20
2008,04,05,07,08,4.20
2008,04,05,07,09,4.20
2008,04,05,07,10,4.30
2008,04,05,07,11,4.30
2008,04,05,07,12,4.30
2008,04,05,07,13,4.30
2008,04,05,07,14,4.40
2008,04,05,07,15,4.40
2008,04,05,07,16,4.50
2008,04,05,07,17,4.50
2008,04,05,07,18,4.50
2008,04,05,07,19,4.50
2008,04,05,07,20,4.50
2008,04,05,07,21,4.50
2008,04,05,07,22,4.40
2008,04,05,07,23,4.40
2008,04,05,07,24,4.40
2008,04,05,07,25,4.50
2008,04,05,07,26,4.40
2008,04,05,07,27,4.40
2008,04,05,07,28,4.40
2008,04,05,07,29,4.50
2008,04,05,07,30,4.50
2008,04,05,07,31,4.50
2008,04,05,07,32,4.50
2008,04,05,07,33,4.50
2008,04,05,07,34,4.50
2008,04,05,07,35,4.60
2008,04,05,07,36,4.60
2008,04,05,07,37,4.60
2008,04,05,07,38,4.60
2008,04,05,07,39,4.60
2008,04,05,07,40,4.60
2008,04,05,07,41,4.70
2008,04,05,07,42,4.70
2008,04,05,07,43,4.70
2008,04,05,07,44,4.70
2008,04,05,07,45,4.70
2008,04,05,07,46,4.80
2008,04,05,07,47,4.80
2008,04,05,07,48,4.80
2008,04,05,07,49,4.90
2008,04,05,07,50,4.90
2008,04,05,07,51,4.90
2008,04,05,07,52,5.00
2008,04,05,07,53,5.10
2008,04,05,07,54,5.10
2008,04,05,07,55,5.10
2008,04,05,07,56,5.20
2008,04,05,07,57,5.20
2008,04,05,07,58,5.30
2008,04,05,07,59,5.30
2008,04,05,08,00,5.30
2008,04,05,08,01,5.40
2008,04,05,08,02,5.40
2008,04,05,08,03,5.40
2008,04,05,08,04,5.40
2008,04,05,08,05,5.40
2008,04,05,08,06,5.40
2008,04,05,08,07,5.40
2008,04,05,08,08,5.40
2008,04,05,08,09,5.40
2008,04,05,08,10,5.40
2008,04,05,08,11,5.40
2008,04,05,08,12,5.40
2008,04,05,08,13,5.40
2008,04,05,08,14,5.40
2008,04,05,08,15,5.40
2008,04,05,08,16,5.50
2008,04,05,08,17,5.50
2008,04,05,08,18,5.50
2008,04,05,08,19,5.60
2008,04,05,08,20,5.60
2008,04,05,08,21,5.60
2008,04,05,08,22,5.70
2008,04,05,08,23,5.70
2008,04,05,08,24,5.80
2008,04,05,08,25,5.80
2008,04,05,08,26,5.90
2008,04,05,08,27,6.00
2008,04,05,08,28,6.10
2008,04,05,08,29,6.10
2008,04,05,08,30,6.20
2008,04,05,08,31,6.20
2008,04,05,08,32,6.20
2008,04,05,08,33,6.20
2008,04,05,08,34,6.30
2008,04,05,08,35,6.30
2008,04,05,08,36,6.30
2008,04,05,08,37,6.30
2008,04,05,08,38,6.30
2008,04,05,08,39,6.30
2008,04,05,08,40,6.30
2008,04,05,08,41,6.30
2008,04,05,08,42,6.30
2008,04,05,08,43,6.30
2008,04,05,08,44,6.30
2008,04,05,08,45,6.30
2008,04,05,08,46,6.30
2008,04,05,08,47,6.30
2008,04,05,08,48,6.30
2008,04,05,08,49,6.30
2008,04,05,08,50,6.30
2008,04,05,08,51,6.30
2008,04,05,08,52,6.30
2008,04,05,08,53,6.40
2008,04,05,08,54,6.40
2008,04,05,08,55,6.40
2008,04,05,08,56,6.40
2008,04,05,08,57,6.50
2008,04,05,08,58,6.50
2008,04,05,08,59,6.60
2008,04,05,09,00,6.60
2008,04,05,09,01,6.70
2008,04,05,09,02,6.70
2008,04,05,09,03,6.70
2008,04,05,09,04,6.70
2008,04,05,09,05,6.80
2008,04,05,09,06,6.80
2008,04,05,09,07,6.80
2008,04,05,09,08,6.80
2008,04,05,09,09,6.80
2008,04,05,09,10,6.70
2008,04,05,09,11,6.70
2008,04,05,09,12,6.70
2008,04,05,09,13,6.60
2008,04,05,09,14,6.60
2008,04,05,09,15,6.60
2008,04,05,09,16,6.60
2008,04,05,09,17,6.60
2008,04,05,09,18,6.60
2008,04,05,09,19,6.60
2008,04,05,09,20,6.60
2008,04,05,09,21,6.60
2008,04,05,09,22,6.60
2008,04,05,09,23,6.60
2008,04,05,09,24,6.70
2008,04,05,09,25,6.70
2008,04,05,09,26,6.70
2008,04,05,09,27,6.70
2008,04,05,09,28,6.80
2008,04,05,09,29,6.80
2008,04,05,09,30,6.80
2008,04,05,09,31,6.80
2008,04,05,09,32,6.80
2008,04,05,09,33,6.80
2008,04,05,09,34,6.80
2008,04,05,09,35,6.80
2008,04,05,09,36,6.80
2008,04,05,09,37,6.80
2008,04,05,09,38,6.80
2008,04,05,09,39,6.80
2008,04,05,09,40,6.80
2008,04,05,09,41,6.70
2008,04,05,09,42,6.70
2008,04,05,09,43,6.70
2008,04,05,09,44,6.80
2008,04,05,09,45,6.80
2008,04,05,09,46,6.80
2008,04,05,09,47,6.90
2008,04,05,09,48,7.00
2008,04,05,09,49,7.10
2008,04,05,09,50,7.20
2008,04,05,09,51,7.20
2008,04,05,09,52,7.20
2008,04,05,09,53,7.20
2008,04,05,09,54,7.20
2008,04,05,09,55,7.20
2008,04,05,09,56,7.20
2008,04,05,09,57,7.10
2008,04,05,09,58,7.10
2008,04,05,09,59,7.00
2008,04,05,10,00,7.00
2008,04,05,10,01,7.00
2008,04,05,10,02,6.90
2008,04,05,10,03,6.80
2008,04,05,10,04,6.80
2008,04,05,10,05,6.80
2008,04,05,10,06,6.70
2008,04,05,10,07,6.70
2008,04,05,10,08,6.70
2008,04,05,10,09,6.70
2008,04,05,10,10,6.70
2008,04,05,10,11,6.80
2008,04,05,10,12,6.80
2008,04,05,10,13,6.80
2008,04,05,10,14,6.80
2008,04,05,10,15,6.80
2008,04,05,10,16,6.90
2008,04,05,10,17,6.90
2008,04,05,10,18,6.90
2008,04,05,10,19,6.90
2008,04,05,10,20,6.90
2008,04,05,10,21,6.90
2008,04,05,10,22,6.80
2008,04,05,10,23,6.80
2008,04,05,10,24,6.70
2008,04,05,10,25,6.70
2008,04,05,10,26,6.80
2008,04,05,10,27,6.90
2008,04,05,10,28,7.00
2008,04,05,10,29,7.10
2008,04,05,10,30,7.20
2008,04,05,10,31,7.30
2008,04,05,10,32,7.30
2008,04,05,10,33,7.30
2008,04,05,10,34,7.30
2008,04,05,10,35,7.30
2008,04,05,10,36,7.30
2008,04,05,10,37,7.30
2008,04,05,10,38,7.20
2008,04,05,10,39,7.20
2008,04,05,10,40,7.20
2008,04,05,10,41,7.20
2008,04,05,10,42,7.20
2008,04,05,10,43,7.20
2008,04,05,10,44,7.20
2008,04,05,10,45,7.20
2008,04,05,10,46,7.20
2008,04,05,10,47,7.20
2008,04,05,10,48,7.20
2008,04,05,10,49,7.20
2008,04,05,10,50,7.20
2008,04,05,10,51,7.30
2008,04,05,10,52,7.30
2008,04,05,10,53,7.40
2008,04,05,10,54,7.40
2008,04,05,10,55,7.40
2008,04,05,10,56,7.40
2008,04,05,10,57,7.50
2008,04,05,10,58,7.50
2008,04,05,10,59,7.50
2008,04,05,11,00,7.50
2008,04,05,11,01,7.40
2008,04,05,11,02,7.30
2008,04,05,11,03,7.20
2008,04,05,11,04,7.20
2008,04,05,11,05,7.20
2008,04,05,11,06,7.20
2008,04,05,11,07,7.20
2008,04,05,11,08,7.20
2008,04,05,11,09,7.20
2008,04,05,11,10,7.10
2008,04,05,11,11,7.10
2008,04,05,11,12,7.00
2008,04,05,11,13,7.00
2008,04,05,11,14,7.00
2008,04,05,11,15,7.00
2008,04,05,11,16,7.00
2008,04,05,11,17,7.10
2008,04,05,11,18,7.10
2008,04,05,11,19,7.10
2008,04,05,11,20,7.10
2008,04,05,11,21,7.20
2008,04,05,11,22,7.20
2008,04,05,11,23,7.20
2008,04,05,11,24,7.20
2008,04,05,11,25,7.20
2008,04,05,11,26,7.20
2008,04,05,11,27,7.20
2008,04,05,11,28,7.20
2008,04,05,11,29,7.20
2008,04,05,11,30,7.10
2008,04,05,11,31,7.00
2008,04,05,11,32,7.00
2008,04,05,11,33,6.90
2008,04,05,11,34,7.00
2008,04,05,11,35,7.00
2008,04,05,11,36,7.00
2008,04,05,11,37,7.10
2008,04,05,11,38,7.10
2008,04,05,11,39,7.20
2008,04,05,11,40,7.20
2008,04,05,11,41,7.20
2008,04,05,11,42,7.20
2008,04,05,11,43,7.30
2008,04,05,11,44,7.30
2008,04,05,11,45,7.30
2008,04,05,11,46,7.30
2008,04,05,11,47,7.20
2008,04,05,11,48,7.20
2008,04,05,11,49,7.20
2008,04,05,11,50,7.30
2008,04,05,11,51,7.30
2008,04,05,11,52,7.40
2008,04,05,11,53,7.40
2008,04,05,11,54,7.50
2008,04,05,11,55,7.60
2008,04,05,11,56,7.60
2008,04,05,11,57,7.60
2008,04,05,11,58,7.60
2008,04,05,11,59,7.60
2008,04,05,12,00,7.60
2008,04,05,12,01,7.50
2008,04,05,12,02,7.50
2008,04,05,12,03,7.50
2008,04,05,12,04,7.50
2008,04,05,12,05,7.40
2008,04,05,12,06,7.40
2008,04,05,12,07,7.40
2008,04,05,12,08,7.40
2008,04,05,12,09,7.50
2008,04,05,12,10,7.50
2008,04,05,12,11,7.50
2008,04,05,12,12,7.60
2008,04,05,12,13,7.60
2008,04,05,12,14,7.70
2008,04,05,12,15,7.80
2008,04,05,12,16,7.80
2008,04,05,12,17,7.80
2008,04,05,12,18,7.80
2008,04,05,12,19,7.80
2008,04,05,12,20,7.80
2008,04,05,12,21,7.70
2008,04,05,12,22,7.70
2008,04,05,12,23,7.70
2008,04,05,12,24,7.70
2008,04,05,12,25,7.70
2008,04,05,12,26,7.70
2008,04,05,12,27,7.70
2008,04,05,12,28,7.70
2008,04,05,12,29,7.80
2008,04,05,12,30,7.80
2008,04,05,12,31,7.80
2008,04,05,12,32,7.80
2008,04,05,12,33,7.80
2008,04,05,12,34,7.80
2008,04,05,12,35,7.80
2008,04,05,12,36,7.80
2008,04,05,12,37,7.80
2008,04,05,12,38,7.90
2008,04,05,12,39,7.90
2008,04,05,12,40,8.00
2008,04,05,12,41,8.00
2008,04,05,12,42,8.10
2008,04,05,12,43,8.00
2008,04,05,12,44,8.00
2008,04,05,12,45,8.00
2008,04,05,12,46,8.00
2008,04,05,12,47,8.00
2008,04,05,12,48,8.00
2008,04,05,12,49,8.00
2008,04,05,12,50,8.00
2008,04,05,12,51,7.90
2008,04,05,12,52,7.70
2008,04,05,12,53,7.70
2008,04,05,12,54,7.60
2008,04,05,12,55,7.60
2008,04,05,12,56,7.60
2008,04,05,12,57,7.60
2008,04,05,12,58,7.70
2008,04,05,12,59,7.70
2008,04,05,13,00,7.70
2008,04,05,13,01,7.80
2008,04,05,13,02,7.80
2008,04,05,13,03,7.80
2008,04,05,13,04,7.80
2008,04,05,13,05,7.90
2008,04,05,13,06,8.00
2008,04,05,13,07,8.00
2008,04,05,13,08,8.10
2008,04,05,13,09,8.20
2008,04,05,13,10,8.20
2008,04,05,13,11,8.20
2008,04,05,13,12,8.20
2008,04,05,13,13,8.20
2008,04,05,13,14,8.10
2008,04,05,13,15,8.10
2008,04,05,13,16,8.10
2008,04,05,13,17,8.20
2008,04,05,13,18,8.20
2008,04,05,13,19,8.30
2008,04,05,13,20,8.30
2008,04,05,13,21,8.30
2008,04,05,13,22,8.20
2008,04,05,13,23,8.20
2008,04,05,13,24,8.20
2008,04,05,13,25,8.20
2008,04,05,13,26,8.20
2008,04,05,13,27,8.20
2008,04,05,13,28,8.20
2008,04,05,13,29,8.30
2008,04,05,13,30,8.30
2008,04,05,13,31,8.20
2008,04,05,13,32,8.10
2008,04,05,13,33,8.10
2008,04,05,13,34,8.10
2008,04,05,13,35,8.10
2008,04,05,13,36,8.10
2008,04,05,13,37,8.10
2008,04,05,13,38,8.10
2008,04,05,13,39,8.10
2008,04,05,13,40,8.10
2008,04,05,13,41,8.10
2008,04,05,13,42,8.10
2008,04,05,13,43,8.20
2008,04,05,13,44,8.20
2008,04,05,13,45,8.30
2008,04,05,13,46,8.40
2008,04,05,13,47,8.40
2008,04,05,13,48,8.50
2008,04,05,13,49,8.60
2008,04,05,13,50,8.70
2008,04,05,13,51,8.80
2008,04,05,13,52,8.80
2008,04,05,13,53,8.90
2008,04,05,13,54,8.90
2008,04,05,13,55,8.90
2008,04,05,13,56,8.80
2008,04,05,13,57,8.70
2008,04,05,13,58,8.70
2008,04,05,13,59,8.70
2008,04,05,14,00,8.70
2008,04,05,14,01,8.70
2008,04,05,14,02,8.80
2008,04,05,14,03,8.80
2008,04,05,14,04,8.80
2008,04,05,14,05,8.90
2008,04,05,14,06,8.90
2008,04,05,14,07,9.00
2008,04,05,14,08,9.10
2008,04,05,14,09,9.10
2008,04,05,14,10,9.10
2008,04,05,14,11,9.10
2008,04,05,14,12,9.10
2008,04,05,14,13,9.00
2008,04,05,14,14,9.00
2008,04,05,14,15,9.00
2008,04,05,14,16,9.00
2008,04,05,14,17,9.10
2008,04,05,14,18,9.10
2008,04,05,14,19,9.10
2008,04,05,14,20,9.00
2008,04,05,14,21,9.00
2008,04,05,14,22,9.00
2008,04,05,14,23,8.90
2008,04,05,14,24,8.80
2008,04,05,14,25,8.80
2008,04,05,14,26,8.70
2008,04,05,14,27,8.70
2008,04,05,14,28,8.70
2008,04,05,14,29,8.70
2008,04,05,14,30,8.70
2008,04,05,14,31,8.70
2008,04,05,14,32,8.70
2008,04,05,14,33,8.70
2008,04,05,14,34,8.70
2008,04,05,14,35,8.70
2008,04,05,14,36,8.70
2008,04,05,14,37,8.80
2008,04,05,14,38,8.70
2008,04,05,14,39,8.70
2008,04,05,14,40,8.80
2008,04,05,14,41,8.70
2008,04,05,14,42,8.70
2008,04,05,14,43,8.70
2008,04,05,14,44,8.70
2008,04,05,14,45,8.70
2008,04,05,14,46,8.70
2008,04,05,14,47,8.70
2008,04,05,14,48,8.70
2008,04,05,14,49,8.60
2008,04,05,14,50,8.60
2008,04,05,14,51,8.50
2008,04,05,14,52,8.50
2008,04,05,14,53,8.50
2008,04,05,14,54,8.50
2008,04,05,14,55,8.60
2008,04,05,14,56,8.60
2008,04,05,14,57,8.60
2008,04,05,14,58,8.50
2008,04,05,14,59,8.50
2008,04,05,15,00,8.60
2008,04,05,15,01,8.50
2008,04,05,15,02,8.60
2008,04,05,15,03,8.60
2008,04,05,15,04,8.60
2008,04,05,15,05,8.70
2008,04,05,15,06,8.70
2008,04,05,15,07,8.70
2008,04,05,15,08,8.70
2008,04,05,15,09,8.70
2008,04,05,15,10,8.70
2008,04,05,15,11,8.70
2008,04,05,15,12,8.70
2008,04,05,15,13,8.80
2008,04,05,15,14,8.80
2008,04,05,15,15,8.80
2008,04,05,15,16,8.80
2008,04,05,15,17,8.80
2008,04,05,15,18,8.80
2008,04,05,15,19,8.80
2008,04,05,15,20,8.80
2008,04,05,15,21,8.80
2008,04,05,15,22,8.80
2008,04,05,15,23,8.80
2008,04,05,15,24,8.80
2008,04,05,15,25,8.80
2008,04,05,15,26,8.70
2008,04,05,15,27,8.70
2008,04,05,15,28,8.70
2008,04,05,15,29,8.60
2008,04,05,15,30,8.60
2008,04,05,15,31,8.60
2008,04,05,15,32,8.60
2008,04,05,15,33,8.70
2008,04,05,15,34,8.70
2008,04,05,15,35,8.70
2008,04,05,15,36,8.70
2008,04,05,15,37,8.70
2008,04,05,15,38,8.70
2008,04,05,15,39,8.70
2008,04,05,15,40,8.70
2008,04,05,15,41,8.80
2008,04,05,15,42,8.80
2008,04,05,15,43,8.80
2008,04,05,15,44,8.80
2008,04,05,15,45,8.80
2008,04,05,15,46,8.80
2008,04,05,15,47,8.90
2008,04,05,15,48,8.90
2008,04,05,15,49,8.90
2008,04,05,15,50,8.90
2008,04,05,15,51,8.80
2008,04,05,15,52,8.80
2008,04,05,15,53,8.80
2008,04,05,15,54,8.80
2008,04,05,15,55,8.80
2008,04,05,15,56,8.80
2008,04,05,15,57,8.80
2008,04,05,15,58,8.80
2008,04,05,15,59,8.90
2008,04,05,16,00,8.90
2008,04,05,16,01,9.00
2008,04,05,16,02,9.10
2008,04,05,16,03,9.10
2008,04,05,16,04,9.10
2008,04,05,16,05,9.00
2008,04,05,16,06,9.00
2008,04,05,16,07,9.00
2008,04,05,16,08,9.00
2008,04,05,16,09,9.00
2008,04,05,16,10,9.00
2008,04,05,16,11,9.00
2008,04,05,16,12,8.90
2008,04,05,16,13,8.90
2008,04,05,16,14,8.90
2008,04,05,16,15,8.90
2008,04,05,16,16,9.00
2008,04,05,16,17,9.00
2008,04,05,16,18,9.00
2008,04,05,16,19,9.00
2008,04,05,16,20,9.10
2008,04,05,16,21,9.10
2008,04,05,16,22,9.10
2008,04,05,16,23,9.20
2008,04,05,16,24,9.20
2008,04,05,16,25,9.20
2008,04,05,16,26,9.20
2008,04,05,16,27,9.20
2008,04,05,16,28,9.20
2008,04,05,16,29,9.20
2008,04,05,16,30,9.20
2008,04,05,16,31,9.20
2008,04,05,16,32,9.20
2008,04,05,16,33,9.20
2008,04,05,16,34,9.20
2008,04,05,16,35,9.20
2008,04,05,16,36,9.20
2008,04,05,16,37,9.20
2008,04,05,16,38,9.20
2008,04,05,16,39,9.20
2008,04,05,16,40,9.10
2008,04,05,16,41,9.10
2008,04,05,16,42,9.10
2008,04,05,16,43,9.10
2008,04,05,16,44,9.00
2008,04,05,16,45,9.00
2008,04,05,16,46,9.00
2008,04,05,16,47,9.00
2008,04,05,16,48,9.10
2008,04,05,16,49,9.00
2008,04,05,16,50,9.00
2008,04,05,16,51,9.10
2008,04,05,16,52,9.10
2008,04,05,16,53,9.10
2008,04,05,16,54,9.10
2008,04,05,16,55,9.10
2008,04,05,16,56,9.10
2008,04,05,16,57,9.10
2008,04,05,16,58,9.20
2008,04,05,16,59,9.20
2008,04,05,17,00,9.20
2008,04,05,17,01,9.20
2008,04,05,17,02,9.20
2008,04,05,17,03,9.20
2008,04,05,17,04,9.20
2008,04,05,17,05,9.20
2008,04,05,17,06,9.20
2008,04,05,17,07,9.30
2008,04,05,17,08,9.30
2008,04,05,17,09,9.30
2008,04,05,17,10,9.30
2008,04,05,17,11,9.30
2008,04,05,17,12,9.30
2008,04,05,17,13,9.30
2008,04,05,17,14,9.30
2008,04,05,17,15,9.30
2008,04,05,17,16,9.30
2008,04,05,17,17,9.30
2008,04,05,17,18,9.30
2008,04,05,17,19,9.20
2008,04,05,17,20,9.20
2008,04,05,17,21,9.20
2008,04,05,17,22,9.30
2008,04,05,17,23,9.30
2008,04,05,17,24,9.30
2008,04,05,17,25,9.30
2008,04,05,17,26,9.30
2008,04,05,17,27,9.30
2008,04,05,17,28,9.30
2008,04,05,17,29,9.30
2008,04,05,17,30,9.40
2008,04,05,17,31,9.40
2008,04,05,17,32,9.40
2008,04,05,17,33,9.40
2008,04,05,17,34,9.50
2008,04,05,17,35,9.40
2008,04,05,17,36,9.40
2008,04,05,17,37,9.50
2008,04,05,17,38,9.50
2008,04,05,17,39,9.50
2008,04,05,17,40,9.60
2008,04,05,17,41,9.60
2008,04,05,17,42,9.60
2008,04,05,17,43,9.60
2008,04,05,17,44,9.60
2008,04,05,17,45,9.60
2008,04,05,17,46,9.60
2008,04,05,17,47,9.60
2008,04,05,17,48,9.60
2008,04,05,17,49,9.60
2008,04,05,17,50,9.60
2008,04,05,17,51,9.60
2008,04,05,17,52,9.60
2008,04,05,17,53,9.60
2008,04,05,17,54,9.60
2008,04,05,17,55,9.60
2008,04,05,17,56,9.60
2008,04,05,17,57,9.70
2008,04,05,17,58,9.70
2008,04,05,17,59,9.80
2008,04,05,18,00,9.80
2008,04,05,18,01,9.80
2008,04,05,18,02,9.80
2008,04,05,18,03,9.90
2008,04,05,18,04,9.80
2008,04,05,18,05,9.80
2008,04,05,18,06,9.80